REV6ND EGNX-LXGB

Flight info

Callsign REV6ND
Flight time N/A
Altitude 9000
Route SAPCO UY53 DTY UM605 SILVA Q41 SAM N63 LELNA/N0233F080 DCT DEGEX/N0238F100 DCT GATMO DCT DELOG/N0241F110 N864 CRISA DCT VULPE N864 MAR DCT PIMOS
Aircraft F406/L-DFGIP3RVY/S

Departure

Time N/A
Airport East Midlands Airport (EGNX)

Arrival

Time 2026-04-30 20:12
Airport Gibraltar Airport (LXGB)
Time Latitude Longitude Altitude Speed Heading
2026-04-30 19:03 40.17151 -4.31561 15063 ft 250 kts 187°
2026-04-30 19:03 40.14019 -4.31900 15067 ft 250 kts 187°
2026-04-30 19:04 40.10659 -4.32262 15062 ft 249 kts 187°
2026-04-30 19:04 40.07187 -4.32637 15063 ft 249 kts 187°
2026-04-30 19:05 40.03629 -4.33020 15061 ft 249 kts 187°
2026-04-30 19:05 40.00056 -4.33405 15063 ft 249 kts 187°
2026-04-30 19:06 39.96545 -4.33802 15065 ft 248 kts 192°
2026-04-30 19:06 39.94866 -4.34195 15059 ft 248 kts 192°
2026-04-30 19:06 39.91380 -4.34943 15064 ft 248 kts 192°
2026-04-30 19:07 39.87968 -4.35679 15065 ft 248 kts 192°
2026-04-30 19:07 39.86753 -4.35942 15064 ft 248 kts 192°
2026-04-30 19:08 39.82780 -4.36798 15063 ft 248 kts 192°
2026-04-30 19:08 39.79790 -4.37444 15065 ft 248 kts 192°
2026-04-30 19:08 39.79292 -4.37550 15064 ft 248 kts 192°
2026-04-30 19:09 39.78389 -4.37745 15064 ft 248 kts 192°
2026-04-30 19:09 39.76615 -4.38130 15067 ft 248 kts 192°
2026-04-30 19:09 39.74905 -4.38493 15067 ft 247 kts 192°
2026-04-30 19:10 39.71479 -4.39228 15064 ft 247 kts 192°
2026-04-30 19:10 39.68015 -4.39967 15068 ft 248 kts 192°
2026-04-30 19:11 39.66262 -4.40343 15068 ft 247 kts 192°
2026-04-30 19:11 39.62818 -4.41077 15068 ft 247 kts 192°
2026-04-30 19:11 39.61092 -4.41445 15068 ft 247 kts 192°
2026-04-30 19:12 39.59348 -4.41817 15063 ft 247 kts 192°
2026-04-30 19:12 39.57664 -4.42175 15069 ft 247 kts 192°
2026-04-30 19:12 39.56497 -4.42423 15068 ft 247 kts 192°
2026-04-30 19:13 39.53066 -4.43152 15068 ft 245 kts 192°
2026-04-30 19:13 39.49593 -4.43891 15078 ft 247 kts 192°
2026-04-30 19:13 39.47823 -4.44270 15070 ft 247 kts 191°
2026-04-30 19:14 39.46180 -4.44615 15071 ft 247 kts 191°
2026-04-30 19:14 39.44439 -4.44986 15069 ft 246 kts 191°
2026-04-30 19:14 39.42679 -4.45360 15067 ft 246 kts 191°
2026-04-30 19:14 39.41020 -4.45710 15068 ft 246 kts 191°
2026-04-30 19:15 39.39274 -4.46081 15066 ft 246 kts 191°
2026-04-30 19:15 39.36443 -4.46679 15069 ft 246 kts 191°
2026-04-30 19:15 39.34675 -4.47053 15069 ft 246 kts 191°
2026-04-30 19:16 39.32989 -4.47410 15068 ft 246 kts 191°
2026-04-30 19:16 39.31262 -4.47775 15068 ft 245 kts 191°
2026-04-30 19:16 39.28440 -4.48371 15064 ft 246 kts 191°
2026-04-30 19:17 39.26666 -4.48745 15063 ft 246 kts 191°
2026-04-30 19:17 39.23160 -4.49484 15062 ft 245 kts 191°
2026-04-30 19:17 39.21472 -4.49841 15059 ft 245 kts 191°
2026-04-30 19:18 39.18632 -4.50439 15062 ft 245 kts 191°
2026-04-30 19:18 39.16416 -4.50906 15060 ft 245 kts 191°
2026-04-30 19:18 39.14667 -4.51275 15064 ft 245 kts 191°
2026-04-30 19:19 39.12961 -4.51633 15060 ft 245 kts 191°
2026-04-30 19:19 39.11229 -4.51995 15057 ft 245 kts 191°
2026-04-30 19:19 39.07898 -4.52696 15063 ft 245 kts 191°
2026-04-30 19:20 39.06171 -4.53059 15056 ft 245 kts 191°
2026-04-30 19:20 39.04495 -4.53412 15063 ft 245 kts 191°
2026-04-30 19:20 39.00948 -4.54155 15057 ft 245 kts 191°
2026-04-30 19:21 38.99291 -4.54502 15060 ft 245 kts 191°
2026-04-30 19:21 38.96417 -4.55103 15062 ft 246 kts 191°
2026-04-30 19:22 38.92847 -4.55850 15058 ft 246 kts 191°
2026-04-30 19:22 38.87846 -4.56895 15058 ft 247 kts 191°
2026-04-30 19:23 38.82538 -4.58002 15061 ft 247 kts 191°
2026-04-30 19:24 38.79698 -4.58593 15059 ft 247 kts 191°
2026-04-30 19:24 38.78384 -4.58868 15060 ft 247 kts 190°
2026-04-30 19:24 38.75400 -4.59487 15059 ft 247 kts 191°
2026-04-30 19:25 38.70462 -4.60513 15055 ft 248 kts 191°
2026-04-30 19:26 38.66980 -4.61236 15058 ft 248 kts 191°
2026-04-30 19:26 38.63390 -4.61980 15052 ft 248 kts 191°
2026-04-30 19:26 38.61673 -4.62335 15054 ft 248 kts 191°
2026-04-30 19:27 38.58295 -4.63035 15060 ft 248 kts 191°
2026-04-30 19:27 38.55442 -4.63627 15052 ft 248 kts 190°
2026-04-30 19:28 38.53367 -4.64054 15052 ft 249 kts 190°
2026-04-30 19:28 38.49824 -4.64786 15051 ft 249 kts 190°
2026-04-30 19:29 38.46330 -4.65507 15051 ft 249 kts 190°
2026-04-30 19:29 38.44630 -4.65858 15053 ft 249 kts 190°
2026-04-30 19:30 38.40020 -4.66807 15051 ft 249 kts 190°
2026-04-30 19:30 38.36513 -4.67529 15055 ft 248 kts 190°
2026-04-30 19:31 38.33436 -4.68160 15051 ft 248 kts 190°
2026-04-30 19:31 38.32058 -4.68445 15055 ft 248 kts 190°
2026-04-30 19:31 38.28489 -4.69177 15049 ft 249 kts 190°
2026-04-30 19:32 38.26577 -4.69570 15055 ft 249 kts 190°
2026-04-30 19:32 38.24941 -4.69905 15054 ft 249 kts 190°
2026-04-30 19:32 38.23334 -4.70234 15051 ft 249 kts 190°
2026-04-30 19:32 38.21565 -4.70597 15052 ft 249 kts 190°
2026-04-30 19:33 38.19823 -4.70953 15054 ft 249 kts 190°
2026-04-30 19:33 38.18612 -4.71200 15048 ft 249 kts 190°
2026-04-30 19:33 38.16775 -4.71576 15050 ft 250 kts 190°
2026-04-30 19:33 38.14988 -4.71943 15043 ft 250 kts 190°
2026-04-30 19:34 38.13273 -4.72292 15046 ft 250 kts 190°
2026-04-30 19:34 38.11540 -4.72646 15040 ft 250 kts 190°
2026-04-30 19:34 38.08141 -4.73341 15047 ft 250 kts 190°
2026-04-30 19:35 38.06170 -4.73740 15046 ft 249 kts 190°
2026-04-30 19:35 38.04553 -4.74074 15050 ft 250 kts 190°
2026-04-30 19:35 38.02766 -4.74436 15048 ft 250 kts 190°
2026-04-30 19:35 38.01031 -4.74790 15046 ft 250 kts 190°
2026-04-30 19:36 37.99311 -4.75140 15042 ft 249 kts 190°
2026-04-30 19:36 37.97610 -4.75486 15046 ft 249 kts 190°
2026-04-30 19:36 37.94534 -4.76112 15041 ft 250 kts 190°
2026-04-30 19:37 37.93020 -4.76418 15038 ft 250 kts 190°
2026-04-30 19:37 37.91220 -4.76784 15041 ft 250 kts 190°
2026-04-30 19:37 37.89790 -4.77075 15041 ft 250 kts 190°
2026-04-30 19:37 37.88171 -4.77404 15040 ft 250 kts 190°
2026-04-30 19:38 37.86083 -4.77828 15043 ft 250 kts 190°
2026-04-30 19:38 37.84323 -4.78185 15036 ft 249 kts 190°
2026-04-30 19:38 37.82570 -4.78540 15042 ft 249 kts 190°
2026-04-30 19:38 37.81354 -4.78785 15044 ft 249 kts 190°
2026-04-30 19:39 37.79547 -4.79151 15042 ft 249 kts 190°
2026-04-30 19:39 37.77433 -4.79579 15039 ft 249 kts 190°
2026-04-30 19:39 37.75982 -4.79873 15041 ft 249 kts 190°
2026-04-30 19:39 37.74209 -4.80231 15042 ft 248 kts 190°
2026-04-30 19:40 37.72519 -4.80573 15042 ft 249 kts 190°
2026-04-30 19:40 37.70765 -4.80927 15042 ft 249 kts 190°
2026-04-30 19:40 37.69033 -4.81278 15042 ft 249 kts 190°
2026-04-30 19:40 37.67287 -4.81630 15040 ft 249 kts 190°
2026-04-30 19:41 37.65536 -4.81983 15035 ft 249 kts 190°
2026-04-30 19:41 37.63790 -4.82335 15039 ft 249 kts 190°
2026-04-30 19:41 37.62113 -4.82674 15040 ft 249 kts 190°
2026-04-30 19:41 37.60797 -4.82938 15039 ft 250 kts 189°
2026-04-30 19:42 37.59079 -4.83284 15042 ft 250 kts 190°
2026-04-30 19:42 37.57048 -4.83693 15041 ft 250 kts 189°
2026-04-30 19:42 37.55646 -4.83975 15040 ft 250 kts 190°
2026-04-30 19:42 37.53770 -4.84353 15040 ft 250 kts 190°
2026-04-30 19:43 37.52084 -4.84693 15039 ft 250 kts 189°
2026-04-30 19:43 37.50293 -4.85050 15040 ft 250 kts 189°
2026-04-30 19:43 37.48783 -4.85355 15035 ft 249 kts 189°
2026-04-30 19:44 37.45464 -4.86020 15040 ft 249 kts 190°
2026-04-30 19:44 37.43756 -4.86363 15041 ft 249 kts 190°
2026-04-30 19:44 37.41899 -4.86736 15042 ft 250 kts 190°
2026-04-30 19:44 37.40069 -4.87102 15041 ft 250 kts 190°
2026-04-30 19:45 37.38358 -4.87446 15039 ft 250 kts 190°
2026-04-30 19:45 37.36535 -4.87809 15040 ft 249 kts 190°
2026-04-30 19:45 37.34929 -4.88132 15038 ft 250 kts 190°
2026-04-30 19:45 37.33455 -4.88426 15041 ft 249 kts 190°
2026-04-30 19:46 37.32272 -4.88662 15041 ft 250 kts 190°
2026-04-30 19:46 37.30323 -4.89052 15044 ft 250 kts 190°
2026-04-30 19:46 37.29170 -4.89283 15042 ft 250 kts 190°
2026-04-30 19:46 37.27334 -4.89649 15045 ft 250 kts 190°
2026-04-30 19:47 37.25610 -4.89993 15042 ft 250 kts 190°
2026-04-30 19:47 37.24186 -4.90278 15042 ft 250 kts 190°
2026-04-30 19:47 37.21993 -4.90715 15044 ft 250 kts 190°
2026-04-30 19:47 37.20233 -4.91066 15044 ft 250 kts 190°
2026-04-30 19:48 37.19029 -4.91305 15040 ft 250 kts 190°
2026-04-30 19:48 37.16665 -4.91776 15043 ft 250 kts 190°
2026-04-30 19:48 37.15275 -4.92053 15040 ft 250 kts 190°
2026-04-30 19:48 37.13178 -4.92470 14923 ft 255 kts 190°
2026-04-30 19:49 37.11896 -4.92724 14782 ft 259 kts 190°
2026-04-30 19:49 37.08135 -4.93463 14377 ft 243 kts 188°
2026-04-30 19:49 37.07071 -4.93601 14256 ft 240 kts 186°
2026-04-30 19:50 37.04648 -4.93815 13983 ft 243 kts 184°
2026-04-30 19:50 37.02953 -4.93877 13792 ft 245 kts 179°
2026-04-30 19:50 37.01199 -4.93759 13577 ft 247 kts 179°
2026-04-30 19:50 36.99777 -4.93689 13401 ft 249 kts 179°
2026-04-30 19:51 36.98155 -4.93607 13208 ft 250 kts 179°
2026-04-30 19:51 36.96249 -4.93507 12981 ft 252 kts 179°
2026-04-30 19:51 36.94513 -4.93418 12777 ft 252 kts 179°
2026-04-30 19:51 36.92644 -4.93322 12560 ft 252 kts 179°
2026-04-30 19:52 36.90779 -4.93225 12339 ft 251 kts 179°
2026-04-30 19:52 36.89568 -4.93162 12198 ft 251 kts 179°
2026-04-30 19:52 36.87723 -4.93068 11989 ft 251 kts 179°
2026-04-30 19:52 36.85751 -4.92966 11761 ft 250 kts 179°
2026-04-30 19:53 36.84024 -4.92876 11565 ft 249 kts 179°
2026-04-30 19:53 36.82531 -4.92782 11394 ft 248 kts 178°
2026-04-30 19:53 36.80806 -4.92697 11200 ft 247 kts 178°
2026-04-30 19:53 36.79318 -4.92622 11030 ft 246 kts 178°
2026-04-30 19:54 36.78232 -4.92564 10904 ft 246 kts 178°
2026-04-30 19:54 36.76589 -4.92482 10718 ft 245 kts 178°
2026-04-30 19:54 36.74844 -4.92395 10522 ft 244 kts 178°
2026-04-30 19:54 36.72997 -4.92301 10314 ft 243 kts 178°
2026-04-30 19:55 36.71165 -4.92209 10093 ft 242 kts 178°
2026-04-30 19:55 36.69432 -4.92122 9896 ft 238 kts 178°
2026-04-30 19:55 36.67784 -4.92039 9691 ft 235 kts 178°
2026-04-30 19:55 36.66134 -4.91954 9479 ft 233 kts 178°
2026-04-30 19:56 36.64480 -4.91869 9279 ft 232 kts 178°
2026-04-30 19:56 36.63199 -4.91803 9114 ft 231 kts 178°
2026-04-30 19:56 36.61567 -4.91722 8907 ft 229 kts 178°
2026-04-30 19:56 36.60500 -4.91666 8771 ft 227 kts 178°
2026-04-30 19:57 36.58824 -4.91579 8542 ft 224 kts 178°
2026-04-30 19:57 36.57520 -4.91515 8376 ft 223 kts 178°
2026-04-30 19:57 36.55944 -4.91435 8174 ft 221 kts 178°
2026-04-30 19:57 36.54790 -4.91376 8026 ft 221 kts 178°
2026-04-30 19:58 36.53139 -4.91293 7819 ft 221 kts 178°
2026-04-30 19:58 36.51659 -4.91213 7624 ft 220 kts 178°
2026-04-30 19:58 36.50033 -4.91132 7437 ft 218 kts 178°
2026-04-30 19:58 36.48469 -4.91054 7288 ft 216 kts 177°
2026-04-30 19:59 36.47319 -4.90993 7173 ft 209 kts 178°
2026-04-30 19:59 36.45445 -4.90901 6986 ft 205 kts 177°
2026-04-30 19:59 36.42523 -4.90746 6694 ft 203 kts 178°
2026-04-30 20:00 36.41569 -4.90699 6594 ft 202 kts 177°
2026-04-30 20:00 36.39842 -4.90614 6415 ft 202 kts 178°
2026-04-30 20:00 36.38629 -4.90543 6282 ft 201 kts 179°
2026-04-30 20:00 36.37170 -4.90478 6126 ft 201 kts 178°
2026-04-30 20:01 36.34223 -4.90324 5823 ft 215 kts 178°
2026-04-30 20:01 36.33031 -4.90262 5705 ft 221 kts 178°
2026-04-30 20:01 36.31108 -4.90163 5518 ft 226 kts 177°
2026-04-30 20:02 36.28118 -4.90012 5238 ft 229 kts 178°
2026-04-30 20:02 36.26629 -4.89938 5100 ft 228 kts 177°
2026-04-30 20:03 36.23965 -4.89800 4864 ft 228 kts 177°
2026-04-30 20:03 36.22521 -4.89727 4725 ft 220 kts 177°
2026-04-30 20:03 36.21041 -4.89655 4568 ft 196 kts 177°
2026-04-30 20:03 36.19654 -4.89862 4390 ft 187 kts 205°
2026-04-30 20:04 36.18699 -4.91006 4223 ft 182 kts 243°
2026-04-30 20:04 36.18442 -4.92171 4109 ft 179 kts 261°
2026-04-30 20:04 36.18289 -4.93622 3975 ft 179 kts 263°
2026-04-30 20:05 36.18028 -4.97038 3970 ft 213 kts 264°
2026-04-30 20:05 36.17879 -4.99081 3973 ft 221 kts 264°
2026-04-30 20:05 36.17650 -5.01737 3889 ft 228 kts 261°
2026-04-30 20:06 36.17261 -5.04890 3579 ft 236 kts 261°
2026-04-30 20:06 36.16990 -5.07149 3358 ft 237 kts 262°
2026-04-30 20:06 36.16766 -5.09027 3168 ft 230 kts 261°
2026-04-30 20:06 36.16688 -5.09690 3098 ft 226 kts 261°
2026-04-30 20:07 36.16386 -5.11709 2882 ft 220 kts 258°
2026-04-30 20:07 36.16127 -5.14739 2549 ft 213 kts 267°
2026-04-30 20:07 36.15982 -5.18456 2164 ft 227 kts 265°
2026-04-30 20:08 36.15900 -5.20322 1979 ft 231 kts 266°
2026-04-30 20:08 36.15817 -5.22149 1800 ft 231 kts 266°
2026-04-30 20:08 36.15722 -5.24233 1575 ft 230 kts 265°
2026-04-30 20:08 36.15661 -5.25733 1414 ft 229 kts 266°
2026-04-30 20:09 36.15623 -5.26915 1294 ft 228 kts 265°
2026-04-30 20:09 36.15583 -5.27606 1215 ft 219 kts 264°
2026-04-30 20:09 36.15294 -5.31503 450 ft 156 kts 261°
2026-04-30 20:10 36.15198 -5.33060 320 ft 146 kts 262°
2026-04-30 20:10 36.15178 -5.33656 151 ft 119 kts 264°
2026-04-30 20:10 36.15134 -5.34573 12 ft 80 kts 259°
2026-04-30 20:11 36.15115 -5.34731 15 ft 60 kts 270°
2026-04-30 20:12 36.15129 -5.34849 17 ft 21 kts 89°
2026-04-30 20:13 36.15133 -5.34749 16 ft 19 kts 83°
2026-04-30 20:13 36.15186 -5.34681 15 ft 8 kts 353°
2026-04-30 20:13 36.15227 -5.34666 15 ft 4 kts 61°
2026-04-30 20:13 36.15230 -5.34590 14 ft 17 kts 89°
2026-04-30 20:14 36.15235 -5.34454 10 ft 1 kts 64°
2026-04-30 20:14 36.15241 -5.34448 10 ft 3 kts 25°
2026-04-30 20:14 36.15287 -5.34431 11 ft 11 kts 18°
2026-04-30 20:14 36.15305 -5.34424 12 ft 7 kts 18°
2026-04-30 20:15 36.15338 -5.34405 13 ft 0 kts 48°
2026-04-30 20:15 36.15338 -5.34402 13 ft 0 kts 82°
2026-04-30 20:15 36.15337 -5.34395 13 ft 0 kts 102°
2026-04-30 20:16 36.15336 -5.34388 13 ft 0 kts 104°